Lid_Strength_Index
8 9 11 11 10 10 11 11 11 11 10 10 9 9 8 7 7 7 6 6 5 5 4 3 4 3 2 2 4 2 0 -0 -0 0 1 1 1 0 -0 -1 -1 -1 -1 -2
9 12 10 9 10 10 10 11 11 10 10 9 8 9 7 6 6 6 6 6 5 5 4 4 3 3 3 2 3 4 3 0 0 0 0 0 0 -0 -0 -1 -1 -1 -1 -1
10 11 9 10 10 11 11 11 11 12 10 9 9 10 9 7 6 6 5 5 5 5 5 5 4 3 3 4 3 3 4 3 1 -0 -0 0 -0 -0 0 0 0 -0 -1 -1
10 9 11 11 11 10 12 10 11 11 11 12 10 13 10 8 7 6 6 5 5 5 5 4 4 4 3 3 3 4 3 3 2 1 0 1 2 2 1 0 -0 -0 -1 -1
12 11 11 11 11 10 11 10 10 10 10 10 11 11 11 8 9 8 6 6 5 5 4 5 4 4 4 3 3 3 4 3 4 2 0 1 1 1 1 0 0 -0 -0 -0
10 8 9 10 9 9 9 9 9 9 10 13 12 11 11 9 9 8 6 5 5 4 4 4 4 4 4 4 4 4 4 5 5 5 4 1 1 1 1 1 1 1 0 -0
10 11 9 9 10 9 9 10 13 14 13 14 11 11 11 9 8 7 6 5 4 4 4 4 4 4 4 5 5 4 4 5 7 5 6 7 4 1 1 1 1 1 1 0
12 15 11 9 10 11 10 10 12 17 15 14 11 13 11 8 7 6 5 5 4 4 4 4 4 4 4 5 5 5 5 5 7 8 7 7 8 8 1 1 1 1 1 0
13 14 10 10 9 9 11 11 9 13 12 13 11 11 9 8 8 7 6 5 5 5 4 4 4 4 4 4 5 6 6 7 6 8 9 7 8 9 9 8 7 1 0 0
11 15 11 10 8 8 8 8 12 11 16 17 13 12 11 10 9 7 7 6 5 5 4 4 4 4 4 4 4 5 6 6 7 7 7 9 9 9 9 8 9 8 8 3
10 11 13 11 11 11 10 11 10 10 12 14 15 12 8 9 8 8 7 6 5 5 4 4 4 4 4 4 4 5 6 8 8 7 8 8 9 9 9 9 10 9 8 8
11 11 14 13 10 10 10 11 10 12 14 12 12 12 7 7 7 7 7 6 5 4 4 4 4 3 3 4 4 5 5 7 8 8 8 9 9 10 10 10 10 9 9 9
11 12 14 14 12 10 11 11 11 11 11 13 14 12 7 8 8 7 7 6 5 5 5 4 4 4 4 4 4 5 5 6 7 8 8 9 9 9 10 10 9 10 10 9
10 12 14 13 12 10 13 12 11 12 14 14 13 12 9 8 9 8 7 6 5 5 5 5 5 4 4 4 4 4 5 5 6 6 7 8 9 10 10 10 10 11 10 10
10 14 13 13 13 13 13 12 12 13 13 15 13 13 11 10 8 8 6 6 6 6 6 5 5 5 5 5 4 4 4 5 6 7 7 8 8 9 10 10 11 11 10 10
10 14 13 15 14 13 14 13 13 12 12 12 12 12 9 8 7 7 7 6 7 7 6 6 5 5 5 5 5 5 5 5 5 7 7 7 7 8 9 10 10 11 11 12
12 12 14 15 14 14 16 13 13 12 11 11 13 10 8 8 7 7 7 7 7 7 6 6 6 6 5 5 5 5 5 5 5 5 6 7 8 7 8 10 10 10 11 11
11 12 13 14 14 18 12 10 10 11 10 9 10 8 8 8 7 7 6 7 7 6 6 6 6 6 6 5 5 5 5 5 6 6 6 6 7 6 6 8 9 9 10 10
10 11 14 15 14 12 13 12 11 11 11 8 8 8 8 8 7 7 7 7 6 6 5 5 5 6 6 6 5 5 6 6 6 6 6 6 6 6 5 7 8 9 8 9
11 10 12 14 16 16 12 10 8 9 13 8 8 8 8 8 11 8 7 6 6 5 5 5 6 6 6 6 5 6 6 6 7 6 6 6 5 5 6 6 6 7 7 8
14 13 15 14 14 12 10 9 8 14 11 7 7 7 8 9 8 7 6 6 6 5 6 6 6 7 6 6 6 7 7 7 7 6 6 5 5 5 5 6 6 6 7 7
13 14 14 13 15 16 8 9 11 8 7 7 7 7 8 8 8 7 7 6 6 6 7 7 7 7 7 6 6 7 7 7 7 6 6 5 5 6 6 6 7 8 8 7
13 10 11 11 11 8 7 7 6 6 8 8 7 7 7 8 8 7 7 6 6 7 7 7 8 7 7 7 6 7 7 7 7 6 6 6 6 6 7 7 8 8 8 9
9 8 10 11 9 9 7 6 6 7 7 7 7 7 7 8 8 7 6 6 7 8 8 8 8 8 8 7 7 6 7 6 6 7 6 6 7 8 8 7 7 8 8 9
9 9 10 10 9 9 8 7 7 7 7 8 8 8 8 7 8 7 6 7 8 8 8 8 8 8 8 7 7 6 6 6 7 7 7 7 8 8 8 8 8 8 8 9
9 9 10 10 8 8 9 7 6 7 8 8 8 8 7 7 7 6 7 7 8 9 8 8 8 8 8 8 7 7 7 7 7 8 8 8 8 9 9 9 8 8 9 9